map of AER home
Great Circle Mapper logo
AER - Airport
Location
City:  Sochi, Krasnodarskiy, Russian Federation (Russia)
ICAO / IATA:URSS / AER

Details
Type:Airport (Aerodrome, Airfield)
Use:Public/Civil
Latitude:4327'00"N (43.449928)
Longitude:3957'24"E (39.956589)
Datum:WGS 1984
Elevation:89 ft (27 m)
Variation:6.73E (WMM2015 magnetic declination)
0.09 annual change
Runways:2
Longest:9482 × 164 ft (2890 × 50 m), paved

Time
Time Zone:UTC+3 (DST+4)

Weather
METAR:URSS 290330Z 06001MPS 9999 FEW033CB BKN110 17/16 Q1007 R06/290050 R02/290050 NOSIG RMK MT OBSC R02/04001MPS QFE754
TAF:URSS 290158Z 2903/3003 05005MPS 9999 SCT030CB OVC100
BECMG 2905/2907 22005G10MPS
TEMPO 2905/2916 -TSRA
BECMG 2916/2918 04005MPS
TEMPO 2916/3003 -TSRA

Related Locations
Nearby:
Farthest:NTAV: 11014 mi / 17726 km
Raivavae, Tubuai Islands, Austral Islands, PF

Find:

   beyond  
but within

Other Information
Maps:
NOTAMs:
Links:
Sources:

  
flag of Russian Federation (Russia)
flag of Krasnodarskiy
  

Sectional Chart

Flight Planning
at skyvector.com

Satellite Image

Google Maps Satellite View

 

Copyright © 2004-2015 Karl L. Swartz. All rights reserved.
The Great Circle Mapper name and logo are trademarks of the Great Circle Mapper.
All other trademarks mentioned herein belong to their respective owners.
Please see credits for attibutions and further copyright information.

  Follow gcmap on Facebook Follow gcmap on Twitter Follow gcmap on Google+

hCard Microformat

Geo Microformat